[[{"header":{"parameterUnit":"m.s-1","parameterCategory":1,"la1":30.2992,"la2":30.254,"lo1":-89.0895,"lo2":-89.0443,"dy":0.0025,"dx":0.0025,"nx":19,"ny":19,"refTime":"2026-04-01T21:00:00:Z","depth":0,"parameterNumber":2,"parameterNumberName":"U-component_of_WINDS"},"data":[0,0,0,-4.8025,-4.8027,-4.8123,-4.8124,-4.8256,-4.8258,0,0,0,0,0,0,0,0,0,0,0,-4.8001,-4.8002,-4.8025,-4.8027,-4.8123,-4.8124,-4.8256,-4.8258,0,0,0,0,0,0,0,0,0,0,0,-4.8001,-4.8002,-4.8003,-4.8027,-4.8123,-4.8124,-4.8256,-4.818,0,0,0,0,0,0,0,0,0,0,-4.8085,-4.8068,-4.8002,-4.8003,-4.8028,-4.8123,-4.8124,-4.8176,-4.8185,-4.8217,0,-4.8246,0,-4.8254,-4.8267,-4.8268,0,0,0,-4.8023,-4.806,-4.8082,-4.8003,-4.8029,-4.8123,-4.8079,-4.8181,-4.819,-4.8228,-4.8248,-4.8252,-4.8256,-4.8268,-4.8269,-4.8465,-4.8466,0,0,-4.8018,-4.8021,-4.8075,-4.8089,-4.8074,-4.8076,-4.8082,-4.8186,-4.8208,-4.8248,-4.8255,-4.8258,-4.8269,-4.827,-4.8464,-4.8465,0,0,0,-4.8005,-4.8017,-4.8036,-4.8083,-4.81,-4.8079,-4.8086,-4.8203,-4.8209,-4.8257,-4.826,-4.827,-4.8271,-4.8463,-4.8464,-4.8519,0,0,0,-4.8002,-4.801,-4.8034,-4.8037,-4.8098,-4.8153,-4.81,-4.8202,-4.8214,-4.8259,-4.827,-4.8273,-4.8461,-4.8463,-4.8515,-4.8544,0,0,0,-4.7993,-4.8009,-4.8025,-4.8037,-4.8079,-4.8151,-4.8163,-4.8205,-4.8216,-4.8268,-4.8273,-4.8461,-4.8463,-4.8511,-4.8538,-4.8595,0,0,0,-4.7985,-4.8073,-4.8026,-4.8126,-4.8078,-4.8185,-4.8162,-4.8242,-4.8293,-4.827,-4.8461,-4.8464,-4.851,-4.8534,-4.8591,-4.8641,-4.8663,0,0,-4.8097,-4.8086,-4.8145,-4.8106,-4.8222,-4.817,-4.8296,-4.8339,-4.8342,-4.8424,-4.8429,-4.8517,-4.8537,-4.8594,-4.8791,-4.8808,0,0,0,-4.8182,-4.8223,-4.8254,-4.8303,-4.8339,-4.8372,-4.8397,-4.8414,-4.8484,-4.8385,-4.8554,-4.8567,-4.86,-4.8623,-4.8638,-4.8665,-4.8476,-4.8476,-4.8476,-4.8342,-4.8342,-4.8439,-4.8451,-4.8499,-4.8525,-4.8564,-4.8591,-4.8576,-4.8616,-4.8639,-4.8758,-4.8786,-4.8797,-4.8826,-4.8669,-4.8669,-4.8669,-4.8669,-4.8505,-4.8563,-4.8544,-4.863,-4.863,-4.8703,-4.8733,-4.872,-4.8788,-4.8741,-4.877,-4.8715,-4.8817,-4.8841,-4.8673,-4.8673,-4.8672,-4.8672,-4.8671,-4.8607,-4.8635,-4.8655,-4.8726,-4.8782,-4.8793,-4.8859,-4.8857,-4.8856,-4.8885,-4.8908,-4.8907,-4.8903,-4.8897,-4.8898,-4.8898,-4.8898,-4.8899,-4.8899,-4.8703,-4.8724,-4.878,-4.8828,-4.886,-4.8902,-4.8932,-4.8964,-4.8998,-4.8991,-4.8991,-4.8971,-4.8828,-4.879,-4.8905,-4.8904,-4.8903,-4.8903,-4.8902,-4.8862,-4.8826,-4.8912,-4.8944,-4.9001,-4.9057,-4.9056,-4.912,-4.9147,-4.918,-4.9156,-4.9051,-4.9039,-4.9027,-4.8995,-4.9157,-4.9157,-4.9157,-4.9157,-4.8945,-4.8941,-4.9028,-4.908,-4.913,-4.9139,-4.9236,-4.9262,-4.9283,-4.9299,-4.9277,-4.9236,-4.9224,-4.9219,-4.9203,-4.9173,-4.9376,-4.9377,-4.9377,-4.9041,-4.9042,-4.9124,-4.9144,-4.919,-4.9229,-4.9321,-4.9382,-4.9398,-4.9386,-4.9312,-4.9302,-4.9237,-4.9216,-4.9196,-4.9171,-4.9117,0,0]},{"header":{"parameterUnit":"m.s-1","parameterCategory":1,"la1":30.2992,"la2":30.254,"lo1":-89.0895,"lo2":-89.0443,"dy":0.0025,"dx":0.0025,"nx":19,"ny":19,"refTime":"2026-04-01T21:00:00:Z","depth":0,"parameterNumber":3,"parameterNumberName":"V-component_of_WINDS"},"data":[0,0,0,2.3397,2.3399,2.3514,2.3514,2.3634,2.3635,0,0,0,0,0,0,0,0,0,0,0,2.3345,2.3345,2.3396,2.3399,2.3514,2.3515,2.3634,2.3635,0,0,0,0,0,0,0,0,0,0,0,2.3345,2.3345,2.3346,2.3399,2.3514,2.3515,2.3634,2.3557,0,0,0,0,0,0,0,0,0,0,2.345,2.3385,2.3345,2.3346,2.34,2.3514,2.3515,2.3553,2.3561,2.357,0,2.3572,0,2.3605,2.3641,2.3641,0,0,0,2.3412,2.3379,2.3425,2.3346,2.3401,2.3513,2.3466,2.3558,2.3567,2.358,2.3574,2.3579,2.3607,2.3641,2.3642,2.3645,2.3645,0,0,2.3405,2.3357,2.3419,2.343,2.341,2.3462,2.3469,2.3564,2.3555,2.3575,2.3583,2.3609,2.3642,2.3643,2.3646,2.3645,0,0,0,2.3378,2.3352,2.3397,2.3424,2.3447,2.3465,2.3473,2.355,2.3569,2.3584,2.361,2.3643,2.3644,2.3647,2.3646,2.3569,0,0,0,2.3375,2.3336,2.3393,2.3365,2.3445,2.35,2.3456,2.3562,2.3575,2.361,2.3643,2.3645,2.3647,2.3646,2.3573,2.3542,0,0,0,2.3344,2.3333,2.3343,2.3362,2.341,2.35,2.3524,2.3566,2.359,2.3641,2.3645,2.3648,2.3646,2.3576,2.3547,2.3529,0,0,0,2.3296,2.3274,2.3341,2.3327,2.3408,2.3451,2.3524,2.3559,2.3594,2.3643,2.3647,2.3646,2.3577,2.355,2.3532,2.3505,2.3489,0,0,2.3241,2.3266,2.3261,2.3325,2.3343,2.3437,2.3446,2.3524,2.3573,2.3618,2.3619,2.3572,2.3547,2.3529,2.3415,2.3402,0,0,0,2.3227,2.3223,2.3239,2.3269,2.3328,2.3376,2.3458,2.3487,2.3528,2.3586,2.3561,2.3548,2.354,2.3529,2.3518,2.3514,2.3638,2.3639,2.3639,2.308,2.3144,2.3141,2.3219,2.3247,2.3332,2.3361,2.3415,2.3471,2.3464,2.3478,2.3401,2.3387,2.3379,2.3374,2.3469,2.3468,2.3468,2.3468,2.3007,2.3012,2.3086,2.311,2.3178,2.3199,2.3279,2.3318,2.3348,2.3396,2.3391,2.3439,2.3362,2.3361,2.3463,2.3464,2.3464,2.3465,2.3465,2.2919,2.2932,2.2967,2.3018,2.3049,2.3129,2.3154,2.3215,2.3272,2.3268,2.329,2.3291,2.3301,2.3274,2.3273,2.3273,2.3273,2.3273,2.3273,2.2814,2.2856,2.2869,2.2928,2.2956,2.3,2.3084,2.3113,2.3161,2.3203,2.3204,2.3261,2.3342,2.3362,2.3269,2.3269,2.327,2.327,2.327,2.2717,2.2748,2.2768,2.2796,2.2871,2.2899,2.2976,2.3029,2.3062,2.3072,2.313,2.318,2.321,2.3219,2.3236,2.3116,2.3116,2.3116,2.3116,2.2643,2.2664,2.2698,2.2738,2.2784,2.2855,2.2877,2.2941,2.3013,2.3037,2.3064,2.3091,2.3097,2.3123,2.3135,2.3151,2.3012,2.3012,2.3012,2.2588,2.2615,2.2622,2.2692,2.2755,2.2808,2.283,2.2873,2.2961,2.3009,2.3058,2.3062,2.3107,2.3118,2.3168,2.3184,2.3216,0,0]}]]